When you browse on this site, cookies collect data to enhance your experience and personalize the content and advertising you see.
Visit our Privacy Policy to learn more. By continuing to use the site, you agree to this use of cookies and data.
  • In Spain
  • List of Countries
  • For 7 days
  • Water Temperature
  • Satellite Maps
  • Weather Map
  • Weather Widgets
  • user-avatar
    Login

    Hourly Weather Vysokiy Holm

    Today, 19 July, Friday

    Time Temperature Precipitation Wind Pressure Humidity
    00:00 +13°C° 0.5 mm 4 mps 737 mmHg 97%
    01:00 +13°C° 0.5 mm 4 mps 737 mmHg 96%
    02:00 +13°C° 0.5 mm 5 mps 737 mmHg 96%
    03:00 +13°C° 0.3 mm 5 mps 737 mmHg 96%
    04:00 +13°C° 0.3 mm 5 mps 738 mmHg 96%
    05:00 +13°C° 0.3 mm 6 mps 738 mmHg 96%
    06:00 +13°C° 0.2 mm 6 mps 738 mmHg 96%
    07:00 +13°C° 0.2 mm 5 mps 739 mmHg 95%
    08:00 +14°C° 0.2 mm 5 mps 739 mmHg 95%
    09:00 +14°C° 0.4 mm 6 mps 739 mmHg 94%
    10:00 +14°C° 0.4 mm 6 mps 740 mmHg 93%
    11:00 +14°C° 0.4 mm 7 mps 740 mmHg 93%
    12:00 +15°C° 0.1 mm 6 mps 740 mmHg 90%
    13:00 +16°C° 0.1 mm 6 mps 740 mmHg 87%
    14:00 +16°C° 0.1 mm 6 mps 741 mmHg 84%
    15:00 +16°C° 0 mm 6 mps 741 mmHg 82%
    16:00 +17°C° 0 mm 6 mps 741 mmHg 79%
    17:00 +17°C° 0 mm 6 mps 741 mmHg 76%
    18:00 +16°C° 0 mm 5 mps 742 mmHg 79%
    19:00 +15°C° 0 mm 4 mps 742 mmHg 82%
    20:00 +14°C° 0 mm 3 mps 742 mmHg 85%
    21:00 +14°C° 0 mm 4 mps 742 mmHg 84%
    22:00 +14°C° 0 mm 4 mps 742 mmHg 83%
    23:00 +15°C° 0 mm 4 mps 743 mmHg 82%

    Tomorrow, 20 July, Saturday

    Time Temperature Precipitation Wind Pressure Humidity
    00:00 +14°C° 0 mm 4 mps 743 mmHg 85%
    01:00 +13°C° 0 mm 4 mps 743 mmHg 89%
    02:00 +12°C° 0 mm 4 mps 743 mmHg 92%
    03:00 +12°C° 0 mm 4 mps 743 mmHg 93%
    04:00 +12°C° 0 mm 3 mps 744 mmHg 93%
    05:00 +12°C° 0 mm 3 mps 744 mmHg 93%
    06:00 +13°C° 0 mm 4 mps 744 mmHg 89%
    07:00 +15°C° 0 mm 4 mps 744 mmHg 85%
    08:00 +17°C° 0 mm 4 mps 745 mmHg 82%
    09:00 +18°C° 0 mm 4 mps 745 mmHg 79%
    10:00 +20°C° 0 mm 5 mps 745 mmHg 75%
    11:00 +21°C° 0 mm 5 mps 746 mmHg 72%
    12:00 +21°C° 0.3 mm 5 mps 746 mmHg 72%
    13:00 +22°C° 0.3 mm 5 mps 746 mmHg 73%
    14:00 +22°C° 0.3 mm 5 mps 745 mmHg 73%
    15:00 +22°C° 0.3 mm 4 mps 746 mmHg 73%
    16:00 +22°C° 0.3 mm 4 mps 746 mmHg 73%
    17:00 +22°C° 0.3 mm 3 mps 746 mmHg 73%
    18:00 +20°C° 0 mm 3 mps 746 mmHg 76%
    19:00 +18°C° 0 mm 3 mps 746 mmHg 78%
    20:00 +17°C° 0 mm 3 mps 746 mmHg 81%
    21:00 +16°C° 0 mm 2 mps 747 mmHg 81%
    22:00 +15°C° 0 mm 2 mps 747 mmHg 82%
    23:00 +14°C° 0 mm 2 mps 747 mmHg 82%

    Day after tomorrow, 21 July, Sunday

    Time Temperature Precipitation Wind Pressure Humidity
    00:00 +14°C° 0 mm 2 mps 747 mmHg 83%
    01:00 +14°C° 0 mm 2 mps 747 mmHg 84%
    02:00 +13°C° 0 mm 2 mps 747 mmHg 85%
    03:00 +13°C° 0 mm 2 mps 747 mmHg 85%
    04:00 +13°C° 0 mm 2 mps 747 mmHg 86%
    05:00 +13°C° 0 mm 1 mps 747 mmHg 86%
    06:00 +15°C° 0 mm 1 mps 747 mmHg 82%
    07:00 +18°C° 0 mm 1 mps 748 mmHg 78%
    08:00 +20°C° 0 mm 1 mps 748 mmHg 74%
    09:00 +20°C° 0 mm 2 mps 748 mmHg 70%
    10:00 +23°C° 0 mm 2 mps 748 mmHg 66%
    11:00 +24°C° 0 mm 2 mps 748 mmHg 63%
    12:00 +24°C° 0 mm 2 mps 748 mmHg 61%
    13:00 +25°C° 0 mm 2 mps 748 mmHg 60%
    14:00 +25°C° 0 mm 2 mps 747 mmHg 58%
    15:00 +25°C° 0 mm 2 mps 747 mmHg 61%
    16:00 +25°C° 0 mm 2 mps 747 mmHg 63%
    17:00 +25°C° 0 mm 1 mps 747 mmHg 66%
    18:00 +23°C° 0 mm 1 mps 747 mmHg 70%
    19:00 +21°C° 0 mm 1 mps 747 mmHg 75%
    20:00 +17°C° 0 mm 0 mps 747 mmHg 80%
    21:00 +17°C° 0 mm 0 mps 747 mmHg 81%
    22:00 +18°C° 0 mm 1 mps 747 mmHg 82%
    23:00 +16°C° 0 mm 1 mps 747 mmHg 83%

    22 July, Monday

    Time Temperature Precipitation Wind Pressure Humidity
    00:00 +16°C° 0 mm 1 mps 747 mmHg 84%
    01:00 +16°C° 0 mm 1 mps 747 mmHg 85%
    02:00 +15°C° 0 mm 1 mps 746 mmHg 87%
    03:00 +15°C° 0 mm 2 mps 746 mmHg 87%
    04:00 +16°C° 0 mm 2 mps 746 mmHg 88%
    05:00 +16°C° 0 mm 2 mps 746 mmHg 88%
    06:00 +17°C° 0 mm 2 mps 746 mmHg 86%
    07:00 +19°C° 0 mm 2 mps 745 mmHg 84%
    08:00 +20°C° 0 mm 3 mps 745 mmHg 82%
    09:00 +21°C° 1 mm 3 mps 745 mmHg 80%
    10:00 +22°C° 1 mm 3 mps 745 mmHg 79%
    11:00 +24°C° 1 mm 3 mps 745 mmHg 77%
    12:00 +23°C° 1.3 mm 2 mps 744 mmHg 81%
    13:00 +23°C° 1.3 mm 2 mps 744 mmHg 84%
    14:00 +21°C° 1.3 mm 2 mps 744 mmHg 87%
    15:00 +20°C° 0.5 mm 2 mps 744 mmHg 89%
    16:00 +19°C° 0.5 mm 2 mps 744 mmHg 92%
    17:00 +18°C° 0.5 mm 2 mps 744 mmHg 95%
    18:00 +18°C° 0.6 mm 2 mps 744 mmHg 95%
    19:00 +17°C° 0.6 mm 2 mps 743 mmHg 96%
    20:00 +17°C° 0.6 mm 2 mps 743 mmHg 97%
    21:00 +17°C° 0.3 mm 2 mps 743 mmHg 97%
    22:00 +17°C° 0.3 mm 2 mps 743 mmHg 98%
    23:00 +17°C° 0.3 mm 2 mps 743 mmHg 98%

    23 July, Tuesday

    Time Temperature Precipitation Wind Pressure Humidity
    00:00 +17°C° 0.3 mm 2 mps 743 mmHg 98%
    01:00 +17°C° 0.3 mm 2 mps 743 mmHg 98%
    02:00 +18°C° 0.3 mm 1 mps 743 mmHg 98%
    03:00 +17°C° 0.6 mm 2 mps 743 mmHg 98%
    04:00 +17°C° 0.6 mm 2 mps 743 mmHg 98%
    05:00 +17°C° 0.6 mm 3 mps 743 mmHg 98%
    06:00 +16°C° 1.3 mm 3 mps 743 mmHg 98%
    07:00 +15°C° 1.3 mm 4 mps 743 mmHg 97%
    08:00 +15°C° 1.3 mm 5 mps 743 mmHg 96%
    09:00 +15°C° 0.7 mm 5 mps 744 mmHg 96%
    10:00 +15°C° 0.7 mm 5 mps 744 mmHg 96%
    11:00 +15°C° 0.7 mm 4 mps 744 mmHg 95%
    12:00 +15°C° 0.1 mm 4 mps 745 mmHg 95%
    13:00 +15°C° 0.1 mm 4 mps 745 mmHg 94%
    14:00 +15°C° 0.1 mm 4 mps 745 mmHg 94%
    15:00 +15°C° 0 mm 4 mps 745 mmHg 93%
    16:00 +16°C° 0 mm 3 mps 745 mmHg 92%
    17:00 +17°C° 0 mm 3 mps 745 mmHg 91%
    18:00 +17°C° 0 mm 3 mps 745 mmHg 89%
    19:00 +17°C° 0 mm 4 mps 745 mmHg 87%
    20:00 +17°C° 0 mm 4 mps 745 mmHg 86%
    21:00 +15°C° 0.1 mm 4 mps 745 mmHg 86%
    22:00 +15°C° 0.1 mm 4 mps 745 mmHg 86%
    23:00 +16°C° 0.1 mm 3 mps 745 mmHg 86%

    24 July, Wednesday

    Time Temperature Precipitation Wind Pressure Humidity
    00:00 +14°C° 0 mm 3 mps 745 mmHg 87%
    01:00 +14°C° 0 mm 4 mps 745 mmHg 88%
    02:00 +13°C° 0 mm 4 mps 745 mmHg 89%
    03:00 +13°C° 0 mm 4 mps 745 mmHg 90%
    04:00 +12°C° 0 mm 4 mps 745 mmHg 90%
    05:00 +12°C° 0 mm 4 mps 745 mmHg 91%
    06:00 +14°C° 0 mm 4 mps 745 mmHg 86%
    07:00 +15°C° 0 mm 5 mps 745 mmHg 82%
    08:00 +16°C° 0 mm 5 mps 746 mmHg 78%
    09:00 +19°C° 0 mm 5 mps 746 mmHg 72%
    10:00 +20°C° 0 mm 6 mps 746 mmHg 66%
    11:00 +21°C° 0 mm 6 mps 746 mmHg 60%
    12:00 +22°C° 0 mm 6 mps 746 mmHg 59%
    13:00 +22°C° 0 mm 5 mps 746 mmHg 58%
    14:00 +23°C° 0 mm 5 mps 746 mmHg 57%
    15:00 +23°C° 0.1 mm 5 mps 746 mmHg 62%
    16:00 +22°C° 0.1 mm 4 mps 746 mmHg 68%
    17:00 +22°C° 0.1 mm 3 mps 746 mmHg 73%
    18:00 +21°C° 0.2 mm 3 mps 745 mmHg 76%
    19:00 +19°C° 0.2 mm 4 mps 745 mmHg 80%
    20:00 +17°C° 0.2 mm 4 mps 745 mmHg 83%
    21:00 +15°C° 0 mm 4 mps 745 mmHg 84%
    22:00 +15°C° 0 mm 4 mps 745 mmHg 85%
    23:00 +14°C° 0 mm 3 mps 745 mmHg 87%
    Show more